This demonstration page uses our WeatherBlox Daily Observations layout. Learn more.

Left ArrowRight Arrow

36.17497, -115.13722

Hourly Observations for April 9, 2020

Temp ( °F °C ) Dew Point ( °F °C ) Humidity (%) Winds ( mph kmh ) Pressure ( in mb ) Visibility ( mi km ) Precip ( " mm )
12:53 am 00:53 Clear 50 10 34 1.1 54 54 ESE 6 9 30.04 1017 10 16 N/A
1:53 am 01:53 Clear 51 10.6 33 0.6 50 50 S 5 7 30.04 1017 10 16 N/A
2:53 am 02:53 Clear 50 10 32 undefined 50 50 SSE 7 11 30.04 1017 10 16 N/A
3:53 am 03:53 Clear 49 9.4 37 2.8 64 64 ESE 8 13 30.07 1018 10 16 N/A
4:53 am 04:53 Clear 47 8.3 38 3.3 71 71 E 9 15 30.09 1019 10 16 N/A
5:53 am 05:53 Partly Cloudy 48 8.9 37 2.8 66 66 NE 5 7 30.11 1020 10 16 N/A
6:53 am 06:53 Cloudy 48 8.9 37 2.8 66 66 NNE 6 9 30.15 1021 10 16 N/A
7:53 am 07:53 Cloudy 50 10 37 2.8 61 61 NE 6 9 30.16 1021 10 16 N/A
8:53 am 08:53 Mostly Cloudy 52 11.1 36 2.2 55 55 E 5 7 30.17 1022 10 16 N/A
9:53 am 09:53 Sunny 53 11.7 35 1.7 51 51 SSE 3 6 30.17 1022 10 16 N/A
10:53 am 10:53 Sunny 54 12.2 33 0.6 45 45 SE 5 7 30.16 1021 10 16 N/A
11:53 am 11:53 Mostly Sunny 58 14.4 33 0.6 39 39 SSE 8 13 30.15 1021 10 16 N/A
12:53 pm 12:53 Mostly Sunny 58 14.4 30 -1.1 35 35 VRB 5 7 30.13 1020 10 16 N/A
1:53 pm 13:53 Mostly Cloudy 60 15.6 32 undefined 35 35 ESE 10 17 30.11 1020 10 16 N/A
2:53 pm 14:53 Sunny 60 15.6 33 0.6 36 36 SSE 10 17 30.10 1019 10 16 N/A
3:53 pm 15:53 Cloudy 59 15 32 undefined 36 36 ESE 8 13 30.09 1019 10 16 N/A
4:53 pm 16:53 Mostly Sunny 60 15.6 30 -1.1 32 32 SE 10 17 30.07 1018 10 16 N/A
5:53 pm 17:53 Mostly Cloudy 60 15.6 31 -0.6 33 33 SW 8 13 30.07 1018 10 16 N/A
6:53 pm 18:53 Partly Cloudy 58 14.4 33 0.6 39 39 NW 12 19 30.07 1018 10 16 N/A
7:53 pm 19:53 Clear 56 13.3 34 1.1 44 44 NW 15 24 30.07 1018 10 16 N/A
8:53 pm 20:53 Mostly Cloudy 56 13.3 34 1.1 44 44 NW 15 24 30.09 1019 10 16 N/A
9:53 pm 21:53 Mostly Cloudy 56 13.3 35 1.7 46 46 NW 10 17 30.09 1019 10 16 N/A
10:53 pm 22:53 Cloudy 56 13.3 34 1.1 44 44 NW 10 17 30.09 1019 10 16 N/A
11:53 pm 23:53 Cloudy 55 12.8 34 1.1 45 45 NNW 13 20 30.09 1019 10 16 N/A

Powered by AerisWeather